Regional Weather Roundup
Issued by NWS

Home | Current Version | Previous Version | Graphics & Text | Print | Product List | Glossary On
Versions: 1 2 3 4 5 6 7 8 9 10 11 12 13 14 15 16 17 18 19 20 21 22 23 24 25 26 27 28 29 30 31 32 33 34 35 36 37 38 39 40 41 42 43 44 45 46 47 48 49 50
000
ASUS43 KDTX 041610
RWRMI
MICHIGAN HOURLY REGIONAL WEATHER ROUNDUP
NATIONAL WEATHER SERVICE DETROIT/PONTIAC MI
1100 AM EST WED MAR 04 2015

NOTE: "FAIR" INDICATES FEW OR NO CLOUDS BELOW 12,000 FEET WITH NO
SIGNIFICANT WEATHER AND/OR OBSTRUCTION TO VISIBILITY.

MIZ047>049-052>055-059>063-066>070-074>076-081>083-041700-
SOUTHEAST LOWER MICHIGAN

CITY           SKY/WX    TMP DP  RH WIND       PRES   REMARKS
ADRIAN         CLOUDY    32  20  61 NW12      29.96R WCI  23
ALMA           MOSUNNY   26  15  63 W13       29.94S WCI  14
ANN ARBOR      CLOUDY    32  19  58 NW12      29.93F WCI  23
BAD AXE        MOSUNNY   25  16  69 NW12      29.91F WCI  14
CARO           PTSUNNY   29  20  69 W3        29.92S
DETROIT CITY   CLOUDY    35  19  52 NW8       29.93F WCI  29
DETROIT        CLOUDY    33  19  56 W12       29.95F WCI  24
FLINT          SUNNY     30  16  56 W15       29.93S WCI  19
GROSSE ILE     CLOUDY    34  19  55 W9        29.93F WCI  26
HILLSDALE      CLOUDY    31  21  65 NW12G17   29.94R WCI  22
HOWELL         SUNNY     30  17  60 W15       29.92S WCI  19

CITY           SKY/WX    TMP DP  RH WIND       PRES   REMARKS
JACKSON        PTSUNNY   29  19  66 W12       29.94S WCI  19
LAMBERTVILLE   CLOUDY    34  25  69 W6        29.96R WCI  29
LANSING        SUNNY     27  14  58 W18       29.95S WCI  14
LAPEER         FAIR      31  17  56 W10G21    29.91S WCI  22
MASON          MOSUNNY   28  17  63 W12G17    29.94S WCI  18
MONROE         PTSUNNY   34  21  60 W12       29.94S WCI  25
MT. CLEMENS    PTSUNNY   34  20  57 W10       29.90F WCI  26
PONTIAC        PTSUNNY   29  19  66 W15       29.90S WCI  18
PORT HOPE        N/A     27  13  55 W10       29.90S WCI  17
PORT HURON     CLOUDY    32  18  55 W10G17    29.92F WCI  24
TRI CITIES     CLOUDY    29  17  61 NW10      29.92F WCI  20
TROY           CLOUDY    34  21  59 W9        29.94S WCI  26
SAGINAW HB     MOSUNNY   30  21  69 W9        29.93S WCI  22
$$
MIZ043>046-050>051-056>058-064>065-071>073-077>080-041700-
SOUTHWEST LOWER MICHIGAN

CITY           SKY/WX    TMP DP  RH WIND       PRES   REMARKS
BATTLE CREEK   CLOUDY    27  17  66 NW17      29.98R WCI  14
BENTON HARBOR  CLOUDY    23  15  71 NW12G20   30.04R WCI  12
BIG RAPIDS     PTSUNNY   23  12  62 W9        29.93S WCI  13
COLDWATER      CLOUDY    29  20  68 NW8       29.97R WCI  21
FREMONT        PTSUNNY   20  10  62 NW15      29.98S WCI   7
HOLLAND        CLOUDY    23  14  68 NW9G22    30.03R WCI  13
GRAND RAPIDS   PTSUNNY   24  13  62 NW15      29.98R WCI  11
IONIA          PTSUNNY   28  16  62 W12       29.95R WCI  17
KALAMAZOO      CLOUDY    26  16  65 NW13      29.99R WCI  15
LUDINGTON      PTSUNNY   20   7  56 NW12G20   30.02R WCI   8
MARSHALL       CLOUDY    27  18  69 W14       29.97R WCI  16
MOUNT PLEASANT CLOUDY    24  14  63 NW8       29.93S WCI  16
MUSKEGON       FLURRIES  21  12  68 NW15G24   30.02R WCI   8
SOUTH HAVEN    CLOUDY    25  15  67 NW13G18   30.03S WCI  13
$$
MIZ016>042-041700-
NORTHERN LOWER MICHIGAN

CITY           SKY/WX    TMP DP  RH WIND       PRES   REMARKS
ALPENA         MIX PCPN  18   7  62 NW8G20    29.91S WCI   8
BEAVER ISLAND  MOSUNNY   12   1  61 W9        29.95S WCI   0
BELLAIRE       LGT SNOW  15   9  75 NW7G17    29.97R WCI   5
CADILLAC       PTSUNNY   16   6  64 W13G20    29.89F WCI   2
CHARLEVOIX     CLOUDY    13   5  68 W16       29.99S WCI  -3
FRANKFORT      PTSUNNY   16   7  67 NW14      30.00S WCI   1
GAYLORD        CLOUDY    13   5  70 NW10G17   29.87R WCI   0
GRAYLING       FLURRIES  18  10  70 W12G18    29.90R WCI   6
HARBOR SPRINGS CLOUDY    15   3  61 NW8       29.94R WCI   3
HOUGHTON LAKE  PTSUNNY   20   8  60 W14       29.89S WCI   7
MANISTEE       CLOUDY    18   7  62 NW15      30.00S WCI   3
OSCODA         CLOUDY    25  15  64 W15       29.89S WCI  13
PELLSTON       CLOUDY    13   2  61 NW20      29.94R WCI  -5
ROGERS CITY    CLOUDY    17   7  66 NW10G16   29.92R WCI   4
TRAVERSE CITY  LGT SNOW  17   8  67 NW14      29.96R WCI   3
$$
MIZ007>008-015-041700-
EASTERN UPPER MICHIGAN

CITY           SKY/WX    TMP DP  RH WIND       PRES   REMARKS
KINROSS        PTSUNNY   10   1  67 NW18G26   29.89R WCI  -8
MACKINAC ISLAN MOSUNNY   15   2  57 W13G20    29.91R WCI   1
NEWBERRY       CLOUDY     9   1  69 NW12G22   29.91S WCI  -6
S. S. MARIE    CLOUDY     9   0  67 W14G22    29.91R HAZE    WCI  -7
MUNISING         N/A     11  -1  58 NW16G22   29.97R WCI  -6
$$
MIZ004>006-011>014-085-041700-
CENTRAL UPPER MICHIGAN

CITY           SKY/WX    TMP DP  RH WIND       PRES   REMARKS
MANISTIQUE     PTSUNNY   11  -1  58 NW13G18   29.95S WCI  -3
ESCANABA       MOSUNNY   10  -4  52 NW13G20   29.99S WCI  -5
MENOMINEE      SUNNY     10  -8  44 W12G17    30.01S WCI  -4
SAWYER-GWINN   PTSUNNY    7  -4  61 W13G21    29.91R WCI  -9
$$
MIZ001>003-009>011-084-041700-
WESTERN UPPER MICHIGAN

CITY           SKY/WX    TMP DP  RH WIND       PRES   REMARKS
IRON MOUNTAIN  SUNNY      6  -8  52 W16G30    29.96R WCI -12
HOUGHTON       MIX PCPN   1  -7  68 NW28G36   29.93R WCI -24
COPPER HARBOR    N/A      1  -8  66 N21G31    29.96R WCI -21
IRONWOOD       MOSUNNY    0  -9  65 NW16      30.00S WCI -21
$$

ABBREVIATIONS USED IN REMARKS
   TC - TEMPERATURE IN CELSIUS
  WCI - WIND CHILL INDEX
   HX - HEAT INDEX
  VSB - VISIBILITY



USA.gov is the U.S. government's official web portal to all federal, state and local government web resources and services.